📊 Raw Sensor Data
Showing records 37501 to 37525 of 84,914 total
| ID | Distance (ft) | Battery V | Battery A | Int Temp (°F) | Int Humid (%) | Ext Temp (°F) | Solar V | RSSI | SNR | Time Stamp |
|---|---|---|---|---|---|---|---|---|---|---|
| 47426 | 14.9 | 4.08 | 28 | 84 | 51 | 76 | 4.50 | -71 | 8 | 07/26/2025 06:45 PM |
| 47425 | 14.8 | 3.94 | 5 | 86 | 51 | 76 | 5.10 | -72 | 6 | 07/26/2025 06:30 PM |
| 47424 | 14.9 | 3.92 | 5 | 87 | 50 | 78 | 5.10 | -71 | 7 | 07/26/2025 06:15 PM |
| 47423 | 14.9 | 3.92 | 5 | 89 | 50 | 79 | 5.10 | -71 | 8 | 07/26/2025 06:00 PM |
| 47422 | 14.9 | 3.92 | 0 | 90 | 49 | 81 | 5.10 | -71 | 7 | 07/26/2025 05:45 PM |
| 47421 | 14.9 | 3.92 | 0 | 91 | 48 | 83 | 5.10 | -70 | 8 | 07/26/2025 05:30 PM |
| 47420 | 14.9 | 4.05 | 5 | 92 | 48 | 83 | 5.10 | -71 | 7 | 07/26/2025 05:15 PM |
| 47419 | 14.9 | 3.92 | 0 | 93 | 47 | 83 | 5.10 | -72 | 8 | 07/26/2025 05:00 PM |
| 47418 | 14.9 | 3.92 | 0 | 94 | 45 | 85 | 5.10 | -72 | 7 | 07/26/2025 04:45 PM |
| 47417 | 15.0 | 3.92 | 0 | 95 | 45 | 86 | 5.10 | -70 | 8 | 07/26/2025 04:30 PM |
| 47416 | 14.9 | 4.11 | 0 | 94 | 44 | 85 | 5.10 | -71 | 8 | 07/26/2025 04:15 PM |
| 47415 | 14.9 | 3.92 | 0 | 93 | 44 | 82 | 5.10 | -69 | 8 | 07/26/2025 04:00 PM |
| 47414 | 14.9 | 3.92 | 0 | 93 | 43 | 84 | 5.10 | -71 | 7 | 07/26/2025 03:45 PM |
| 47413 | 14.9 | 3.93 | 0 | 93 | 42 | 84 | 5.10 | -71 | 8 | 07/26/2025 03:30 PM |
| 47412 | 14.9 | 3.92 | 0 | 91 | 42 | 84 | 5.10 | -72 | 8 | 07/26/2025 03:15 PM |
| 47411 | 14.9 | 3.98 | 0 | 90 | 42 | 81 | 5.10 | -70 | 7 | 07/26/2025 03:00 PM |
| 47410 | 14.9 | 3.92 | 0 | 89 | 42 | 80 | 5.10 | -73 | 7 | 07/26/2025 02:45 PM |
| 47409 | 14.8 | 3.92 | 0 | 89 | 41 | 81 | 5.10 | -73 | 8 | 07/26/2025 02:30 PM |
| 47408 | 14.8 | 3.92 | 0 | 87 | 41 | 78 | 5.10 | -72 | 7 | 07/26/2025 02:15 PM |
| 47407 | 14.8 | 4.11 | 0 | 85 | 41 | 77 | 5.10 | -71 | 7 | 07/26/2025 02:00 PM |
| 47406 | 14.8 | 3.92 | 0 | 84 | 42 | 78 | 5.10 | -71 | 7 | 07/26/2025 01:45 PM |
| 47405 | 14.8 | 3.92 | 0 | 83 | 42 | 76 | 5.10 | -71 | 7 | 07/26/2025 01:30 PM |
| 47404 | 14.9 | 3.92 | 0 | 82 | 42 | 74 | 5.10 | -69 | 7 | 07/26/2025 01:15 PM |
| 47403 | 14.9 | 3.98 | 0 | 81 | 42 | 72 | 5.10 | -72 | 7 | 07/26/2025 01:00 PM |
| 47402 | 14.9 | 3.92 | 0 | 79 | 43 | 75 | 5.10 | -70 | 7 | 07/26/2025 12:45 PM |